Rochester/St. Mary\'s Hospita, MN

7:19 PM CST on December 09, 2019 (GMT -0600)
Rochester/St. Mary\'s Hospita

Weather History for K9MN - October, 2019

Change the Weather History Date:

Friday, October 4, 2019

  Actual Average (KRST) Record (KRST)
Temperature  
Mean Temperature 46 °F -  
Max Temperature 49 °F 63 °F 84 °F (2005)
Min Temperature 42 °F 40 °F 20 °F (1935)
Degree Days  
Heating Degree Days 20    
Moisture  
Dew Point 38 °F    
Average Humidity 76    
Maximum Humidity 92    
Minimum Humidity 67    
Precipitation  
Precipitation 0.00 in - - ()
Sea Level Pressure  
Sea Level Pressure 30.37 in    
Wind  
Wind Speed 5 mph (East)    
Max Wind Speed 12 mph    
Max Gust Speed 16 mph    
Visibility 10 miles    
Events      
Averages and records for this station are not official NWS values.
T = Trace of Precipitation, MM = Missing Value Source: NWS Daily Summary

Daily Weather History Graph

Daily Weather History Graph

Search for Another Location

Airport or City:

Astronomy

Oct. 04, 2019 Rise Set
Actual Time 7:10 AM CDT 6:45 PM CDT
Civil Twilight 6:42 AM CDT 7:14 PM CDT
Nautical Twilight 6:08 AM CDT 7:47 PM CDT
Astronomical Twilight 5:34 AM CDT 8:21 PM CDT
Moon 1:54 PM CDT (10/4) 11:03 PM CDT (10/4)
Length of Visible Light 12h 32m
Length of Day
11h 34m
Waxing Crescent, 40% of the Moon is Illuminated
Oct 4
Waxing Crescent
Oct 5
First Quarter
Oct 13
Full
Oct 21
Last Quarter
Oct 27
New

Hourly Weather History & Observations

Time (CDT) Temp. Windchill Dew Point Humidity Pressure Visibility Wind Dir Wind Speed Gust Speed Precip Events Conditions
12:15 AM 44.2 °F 42.7 °F 40.1 °F 85% 30.37 in 10.0 mi NW 3.5 mph - N/A   Overcast
12:16 AM 44.2 °F 42.7 °F 40.1 °F 85% 30.37 in 10.0 mi NNW 3.5 mph - N/A   Overcast
12:35 AM 44.2 °F 42.7 °F 39.6 °F 84% 30.38 in 10.0 mi NNW 3.5 mph - N/A   Overcast
12:55 AM 44.1 °F - 39.0 °F 82% 30.38 in 10.0 mi Calm Calm - N/A   Overcast
12:56 AM 44.1 °F - 39.0 °F 82% 30.38 in 10.0 mi Calm Calm - N/A   Overcast
1:15 AM 44.4 °F 42.0 °F 37.4 °F 76% 30.39 in 10.0 mi North 4.6 mph - N/A   Overcast
1:16 AM 44.4 °F 42.9 °F 37.2 °F 76% 30.39 in 10.0 mi North 3.5 mph - N/A   Overcast
1:35 AM 44.6 °F 42.2 °F 36.9 °F 74% 30.39 in 10.0 mi NNW 4.6 mph - N/A   Overcast
1:55 AM 44.4 °F 40.5 °F 36.3 °F 73% 30.39 in 10.0 mi North 6.9 mph - N/A   Overcast
2:15 AM 44.1 °F 40.8 °F 36.5 °F 75% 30.40 in 10.0 mi NNE 5.8 mph - N/A   Overcast
2:16 AM 44.1 °F 40.8 °F 36.5 °F 75% 30.40 in 10.0 mi North 5.8 mph - N/A   Overcast
2:35 AM 44.1 °F 41.5 °F 37.4 °F 77% 30.40 in 10.0 mi NNW 4.6 mph - N/A   Overcast
2:55 AM 43.7 °F 42.1 °F 36.7 °F 76% 30.40 in 10.0 mi NNW 3.5 mph - N/A   Overcast
3:15 AM 42.8 °F 40.1 °F 36.5 °F 78% 30.41 in 10.0 mi North 4.6 mph - N/A   Overcast
3:16 AM 42.8 °F 38.0 °F 36.3 °F 78% 30.41 in 10.0 mi North 8.1 mph - N/A   Overcast
3:35 AM 42.8 °F 41.1 °F 36.1 °F 77% 30.41 in 10.0 mi North 3.5 mph - N/A   Overcast
3:36 AM 42.8 °F 41.1 °F 36.1 °F 77% 30.41 in 10.0 mi North 3.5 mph - N/A   Overcast
3:55 AM 42.3 °F 38.6 °F 35.8 °F 78% 30.41 in 10.0 mi North 5.8 mph - N/A   Overcast
4:15 AM 42.6 °F - 36.3 °F 78% 30.42 in 10.0 mi Calm Calm - N/A   Overcast
4:16 AM 42.6 °F - 36.5 °F 79% 30.42 in 10.0 mi Calm Calm - N/A   Overcast
4:35 AM 42.8 °F - 36.5 °F 78% 30.42 in 10.0 mi Calm Calm - N/A   Overcast
4:36 AM 42.8 °F - 36.5 °F 78% 30.42 in 10.0 mi Calm Calm - N/A   Overcast
4:55 AM 42.4 °F 40.7 °F 36.7 °F 80% 30.43 in 10.0 mi North 3.5 mph - N/A   Overcast
4:56 AM 42.4 °F 40.7 °F 36.7 °F 80% 30.43 in 10.0 mi North 3.5 mph - N/A   Overcast
5:15 AM 42.6 °F 40.9 °F 37.2 °F 81% 30.43 in 10.0 mi North 3.5 mph - N/A   Overcast
5:35 AM 42.8 °F - 37.6 °F 82% 30.43 in 10.0 mi Calm Calm - N/A   Overcast
5:55 AM 42.8 °F - 37.6 °F 82% 30.44 in 10.0 mi Calm Calm - N/A   Overcast
5:56 AM 42.8 °F 41.1 °F 37.8 °F 82% 30.44 in 10.0 mi NNE 3.5 mph - N/A   Overcast
6:15 AM 43.0 °F 41.3 °F 37.8 °F 82% 30.44 in 10.0 mi North 3.5 mph - N/A   Overcast
6:35 AM 43.0 °F 41.3 °F 37.8 °F 82% 30.44 in 10.0 mi NE 3.5 mph - N/A   Overcast
6:55 AM 43.3 °F 40.7 °F 37.4 °F 80% 30.45 in 10.0 mi NNE 4.6 mph - N/A   Overcast
6:56 AM 43.3 °F 40.7 °F 37.4 °F 80% 30.45 in 10.0 mi NNE 4.6 mph - N/A   Overcast
7:15 AM 43.0 °F - 34.9 °F 73% 30.45 in 10.0 mi Calm Calm - N/A   Overcast
7:16 AM 43.2 °F 41.5 °F 34.9 °F 73% 30.45 in 10.0 mi SE 3.5 mph - N/A   Overcast
7:35 AM 43.3 °F 40.7 °F 35.8 °F 75% 30.46 in 10.0 mi ENE 4.6 mph - N/A   Overcast
7:36 AM 43.3 °F - 35.8 °F 75% 30.46 in 10.0 mi Calm Calm - N/A   Overcast
7:55 AM 43.7 °F 41.1 °F 35.6 °F 73% 30.45 in 10.0 mi NNE 4.6 mph - N/A   Overcast
8:15 AM 43.9 °F 42.3 °F 35.1 °F 71% 30.46 in 10.0 mi NE 3.5 mph - N/A   Overcast
8:35 AM 43.7 °F 40.3 °F 34.7 °F 71% 30.46 in 10.0 mi NE 5.8 mph - N/A   Overcast
8:36 AM 43.9 °F 39.9 °F 34.7 °F 70% 30.46 in 10.0 mi NE 6.9 mph - N/A   Overcast
8:55 AM 43.9 °F 42.3 °F 35.6 °F 73% 30.46 in 10.0 mi NE 3.5 mph - N/A   Overcast
9:15 AM 44.6 °F 42.2 °F 35.4 °F 70% 30.45 in 10.0 mi East 4.6 mph - N/A   Overcast
9:35 AM 45.0 °F 42.6 °F 35.6 °F 70% 30.46 in 10.0 mi ENE 4.6 mph - N/A   Overcast
9:36 AM 45.0 °F 41.8 °F 35.6 °F 70% 30.46 in 10.0 mi ENE 5.8 mph - N/A   Overcast
9:55 AM 45.1 °F 43.7 °F 35.8 °F 70% 30.45 in 10.0 mi NE 3.5 mph - N/A   Overcast
10:15 AM 45.1 °F 42.8 °F 35.8 °F 70% 30.46 in 10.0 mi East 4.6 mph - N/A   Overcast
10:35 AM 45.3 °F 43.0 °F 36.0 °F 70% 30.46 in 10.0 mi ESE 4.6 mph - N/A   Overcast
10:36 AM 45.3 °F 42.3 °F 36.0 °F 70% 30.46 in 10.0 mi East 5.8 mph - N/A   Overcast
10:55 AM 45.5 °F 42.5 °F 36.1 °F 70% 30.46 in 10.0 mi East 5.8 mph - N/A   Overcast
10:56 AM 45.5 °F 43.2 °F 36.1 °F 70% 30.46 in 10.0 mi East 4.6 mph - N/A   Overcast
11:15 AM 45.5 °F 42.5 °F 36.1 °F 70% 30.45 in 10.0 mi ENE 5.8 mph - N/A   Overcast
11:35 AM 45.5 °F 42.5 °F 36.3 °F 70% 30.45 in 10.0 mi ESE 5.8 mph - N/A   Overcast
11:55 AM 45.7 °F 42.0 °F 36.5 °F 70% 30.44 in 10.0 mi East 6.9 mph - N/A   Overcast
11:56 AM 45.9 °F 42.3 °F 36.5 °F 70% 30.44 in 10.0 mi ESE 6.9 mph - N/A   Overcast
12:15 PM 46.0 °F 41.4 °F 36.9 °F 70% 30.44 in 10.0 mi ESE 9.2 mph - N/A   Overcast
12:35 PM 46.0 °F 41.9 °F 36.5 °F 69% 30.43 in 10.0 mi ESE 8.1 mph - N/A   Overcast
12:55 PM 46.6 °F - 36.5 °F 68% 30.42 in 10.0 mi ESE 9.2 mph - N/A   Overcast
12:56 PM 46.6 °F - 36.7 °F 68% 30.42 in 10.0 mi ESE 9.2 mph - N/A   Overcast
1:15 PM 47.1 °F - 37.0 °F 68% 30.42 in 10.0 mi East 6.9 mph - N/A   Overcast
1:35 PM 47.7 °F - 37.6 °F 68% 30.41 in 10.0 mi East 6.9 mph - N/A   Overcast
1:36 PM 47.7 °F - 37.6 °F 68% 30.41 in 10.0 mi East 6.9 mph - N/A   Overcast
1:55 PM 48.0 °F - 37.9 °F 68% 30.40 in 10.0 mi ESE 6.9 mph - N/A   Overcast
1:56 PM 48.2 °F - 37.9 °F 68% 30.40 in 10.0 mi ESE 6.9 mph - N/A   Overcast
2:15 PM 47.7 °F - 37.6 °F 68% 30.40 in 10.0 mi East 10.4 mph - N/A   Overcast
2:35 PM 47.7 °F - 37.8 °F 69% 30.39 in 10.0 mi SE 10.4 mph - N/A   Overcast
2:36 PM 47.7 °F - 37.6 °F 68% 30.39 in 10.0 mi SE 8.1 mph - N/A   Overcast
2:55 PM 48.2 °F - 37.9 °F 68% 30.38 in 10.0 mi SE 6.9 mph - N/A   Overcast
2:56 PM 48.2 °F - 37.9 °F 68% 30.38 in 10.0 mi SSE 4.6 mph - N/A   Overcast
3:15 PM 48.2 °F - 38.3 °F 69% 30.37 in 10.0 mi ESE 8.1 mph - N/A   Overcast
3:35 PM 48.7 °F - 38.8 °F 69% 30.37 in 10.0 mi ESE 8.1 mph - N/A   Overcast
3:36 PM 48.7 °F - 38.8 °F 69% 30.37 in 10.0 mi ESE 8.1 mph - N/A   Overcast
3:55 PM 48.4 °F - 38.3 °F 68% 30.34 in 10.0 mi East 5.8 mph - N/A   Overcast
3:56 PM 48.4 °F - 38.3 °F 68% 30.34 in 10.0 mi ESE 5.8 mph - N/A   Overcast
4:15 PM 49.1 °F - 38.7 °F 67% 30.34 in 10.0 mi ESE 6.9 mph - N/A   Overcast
4:35 PM 49.1 °F - 38.5 °F 67% 30.33 in 10.0 mi East 6.9 mph 16.1 mph N/A   Overcast
4:55 PM 49.1 °F - 38.8 °F 68% 30.33 in 10.0 mi ESE 11.5 mph - N/A   Overcast
4:56 PM 49.1 °F - 38.8 °F 68% 30.33 in 10.0 mi ESE 10.4 mph - N/A   Overcast
5:15 PM 49.1 °F - 39.2 °F 69% 30.33 in 10.0 mi ESE 6.9 mph - N/A   Overcast
5:16 PM 49.1 °F - 39.2 °F 69% 30.33 in 10.0 mi East 6.9 mph - N/A   Overcast
5:35 PM 48.6 °F - 39.2 °F 70% 30.33 in 10.0 mi ESE 9.2 mph - N/A   Overcast
5:55 PM 48.6 °F - 38.7 °F 69% 30.33 in 10.0 mi ESE 9.2 mph - N/A   Overcast
6:15 PM 48.6 °F - 39.2 °F 70% 30.33 in 10.0 mi ESE 6.9 mph - N/A   Overcast
6:16 PM 48.6 °F - 39.2 °F 70% 30.33 in 10.0 mi SE 6.9 mph - N/A   Overcast
6:35 PM 48.7 °F - 39.7 °F 71% 30.31 in 10.0 mi ESE 8.1 mph - N/A   Overcast
6:36 PM 48.7 °F - 39.7 °F 71% 30.30 in 10.0 mi East 8.1 mph - N/A   Overcast
6:55 PM 48.4 °F - 40.1 °F 73% 30.30 in 10.0 mi East 8.1 mph - N/A   Overcast
7:15 PM 48.4 °F - 40.8 °F 75% 30.29 in 10.0 mi East 6.9 mph - N/A   Overcast
7:35 PM 47.8 °F - 41.5 °F 79% 30.29 in 10.0 mi East 6.9 mph - N/A   Overcast
7:36 PM 47.8 °F - 41.5 °F 79% 30.29 in 10.0 mi East 9.2 mph - N/A   Overcast
7:55 PM 47.7 °F - 41.9 °F 80% 30.29 in 10.0 mi East 9.2 mph - N/A   Overcast
8:15 PM 47.3 °F - 41.9 °F 82% 30.29 in 10.0 mi East 9.2 mph - N/A   Mostly Cloudy
8:35 PM 47.1 °F - 41.9 °F 82% 30.28 in 10.0 mi East 6.9 mph - N/A   Scattered Clouds
8:36 PM 47.1 °F - 41.9 °F 82% 30.28 in 10.0 mi East 6.9 mph - N/A   Scattered Clouds
8:55 PM 46.8 °F - 41.9 °F 83% 30.27 in 10.0 mi East 9.2 mph - N/A   Clear
8:56 PM 46.8 °F - 41.9 °F 83% 30.27 in 10.0 mi East 9.2 mph - N/A   Clear
9:15 PM 46.4 °F 42.9 °F 42.1 °F 85% 30.26 in 10.0 mi East 6.9 mph - N/A   Clear
9:35 PM 45.9 °F 41.7 °F 42.1 °F 87% 30.26 in 10.0 mi East 8.1 mph - N/A   Clear
9:55 PM 45.7 °F 42.0 °F 42.1 °F 87% 30.24 in 10.0 mi East 6.9 mph - N/A   Clear
9:56 PM 45.7 °F 41.5 °F 42.1 °F 87% 30.24 in 10.0 mi ESE 8.1 mph - N/A   Clear
10:15 PM 45.5 °F 41.3 °F 42.3 °F 88% 30.24 in 10.0 mi ESE 8.1 mph - N/A   Clear
10:16 PM 45.5 °F 41.3 °F 42.3 °F 88% 30.24 in 10.0 mi ESE 8.1 mph - N/A   Clear
10:35 PM 45.5 °F 40.8 °F 42.4 °F 89% 30.24 in 10.0 mi ESE 9.2 mph - N/A   Clear
10:55 PM 45.3 °F 41.1 °F 42.8 °F 91% 30.22 in 10.0 mi ESE 8.1 mph - N/A   Clear
10:56 PM 45.3 °F 40.6 °F 43.0 °F 92% 30.22 in 10.0 mi ESE 9.2 mph - N/A   Clear
11:15 PM 45.5 °F 40.3 °F 43.2 °F 92% 30.22 in 10.0 mi ESE 10.4 mph - N/A   Clear
11:16 PM 45.5 °F 41.8 °F 43.2 °F 92% 30.22 in 10.0 mi ESE 6.9 mph - N/A   Clear
11:35 PM 45.5 °F 40.8 °F 43.2 °F 92% 30.22 in 10.0 mi ESE 9.2 mph - N/A   Scattered Clouds
11:55 PM 45.7 °F 40.6 °F 43.3 °F 92% 30.21 in 10.0 mi ESE 10.4 mph - N/A   Mostly Cloudy